Weather History for Blythe, CA

Change the Weather History Date:

Friday, September 14, 2012

  Actual Average Record
Temperature  
Mean Temperature 92 °F -  
Max Temperature 102 °F 100 °F 111 °F (1971)
Min Temperature 81 °F 73 °F 61 °F (1985)
Cooling Degree Days 26    
Growing Degree Days 42 (Base 50)    
Moisture  
Dew Point 43 °F    
Average Humidity 20    
Maximum Humidity 33    
Minimum Humidity 9    
Precipitation  
Precipitation 0.00 in - - ()
Sea Level Pressure  
Sea Level Pressure 29.95 in    
Wind  
Wind Speed 8 mph (NE)    
Max Wind Speed 16 mph    
Max Gust Speed 24 mph    
Visibility 10 miles    
Events      
Averages and records for this station are not official NWS values.
T = Trace of Precipitation, MM = Missing Value Source: NWS Daily Summary

Daily Weather History Graph

Daily Weather History Graph

Search for Another Location

Airport:

Trip Planner

Search our weather history database for the weather conditions in past years. The results will help you decide how hot, cold, wet, or windy it might be!

Date:

Astronomy

Sep. 14, 2012 Rise Set
Actual Time 6:21 AM PDT 6:45 PM PDT
Civil Twilight 5:56 AM PDT 7:10 PM PDT
Nautical Twilight 5:27 AM PDT 7:40 PM PDT
Astronomical Twilight 4:57 AM PDT 8:09 PM PDT
Moon 4:52 AM PDT (9/14) 5:44 PM PDT (9/14)
Length of Visible Light 13h 13m
Length of Day
12h 23m
Waning Crescent, 2% of the Moon is Illuminated
Sep 14
Waning Crescent
Sep 15
New
Sep 22
First Quarter
Sep 29
Full
Oct 8
Last Quarter

Hourly Weather History & Observations

Time (PDT) Temp. Dew Point Humidity Pressure Visibility Wind Dir Wind Speed Gust Speed Precip Events Conditions
12:52 AM 87.1 °F 46.9 °F 25% 29.91 in 10.0 mi NE 8.1 mph - N/A   Clear
1:52 AM 87.1 °F 46.0 °F 24% 29.92 in 10.0 mi NNE 3.5 mph - N/A   Clear
2:52 AM 84.9 °F 46.9 °F 27% 29.93 in 10.0 mi NE 5.8 mph - N/A   Clear
3:52 AM 82.9 °F 46.9 °F 28% 29.94 in 10.0 mi ENE 9.2 mph - N/A   Clear
4:52 AM 81.0 °F 48.9 °F 33% 29.96 in 10.0 mi NNW 5.8 mph - N/A   Clear
5:52 AM 86.0 °F 48.9 °F 28% 29.97 in 10.0 mi Variable 5.8 mph - N/A   Clear
6:52 AM 84.0 °F 50.0 °F 31% 29.99 in 10.0 mi NE 11.5 mph - N/A   Clear
7:52 AM 88.0 °F 50.0 °F 27% 30.01 in 10.0 mi NE 12.7 mph - N/A   Clear
8:52 AM 91.0 °F 48.0 °F 23% 30.02 in 10.0 mi NE 13.8 mph - N/A   Clear
9:52 AM 93.0 °F 46.0 °F 20% 30.03 in 10.0 mi ENE 16.1 mph 24.2 mph N/A   Clear
12:52 PM 100.0 °F 39.9 °F 13% 29.99 in 10.0 mi NNE 11.5 mph 19.6 mph N/A   Clear
1:00 PM 100.4 °F 39.2 °F 12% 30.00 in 10.0 mi NE 12.7 mph - N/A   Clear
1:52 PM 100.9 °F 37.0 °F 11% 29.96 in 10.0 mi East 11.5 mph 18.4 mph N/A   Clear
2:52 PM 102.9 °F 35.1 °F 10% 29.93 in 10.0 mi ENE 16.1 mph 19.6 mph N/A   Clear
3:52 PM 102.9 °F 34.0 °F 9% 29.90 in 10.0 mi ENE 8.1 mph 19.6 mph N/A   Clear
4:52 PM 102.9 °F 36.0 °F 10% 29.89 in 10.0 mi NE 8.1 mph - N/A   Clear
5:52 PM 102.0 °F 36.0 °F 10% 29.88 in 10.0 mi NE 9.2 mph - N/A   Clear
6:52 PM 97.0 °F 39.0 °F 13% 29.88 in 10.0 mi North 5.8 mph - N/A   Clear
7:52 PM 93.9 °F 39.0 °F 15% 29.88 in 10.0 mi NNW 3.5 mph - N/A   Clear
8:52 PM 89.1 °F 44.1 °F 21% 29.91 in 10.0 mi SE 9.2 mph - N/A   Clear
9:52 PM 88.0 °F 43.0 °F 21% 29.94 in 10.0 mi South 6.9 mph - N/A   Clear
10:52 PM 84.9 °F 43.0 °F 23% 29.96 in 10.0 mi Calm Calm - N/A   Clear